カタログに戻る

STARLINK-1284

運用中通信VLEO
NORAD 45390·PAYLOAD·🇺🇸 United States

打ち上げ Mar 18, 2020 から Cape Canaveral Space Force Station

Loading…

次のパス (今後24時間)

TLE

最新Source: CelesTrak SupGP

元期: Sep 15, 2026, 02:27 UTC

1 45390C 20019AG  26258.10256944  .00120360  00000+0  50350-3 0  2582
2 45390  53.0361 275.2860 0006158  18.5079  97.0512 15.84803743    19

AllMySatでSTARLINK-1284をリアルタイム追跡

Download on the App Store